User: anonymous   Login
Location: Unspecified
(0.0000°N, 0.0000°E)
Time: 04:04:22
(UTC+00:00)
Language:

Lacrosse 5 - Orbit

View from above orbital plane
View from above orbital plane
View from above satellite
View from above satellite

Ground track
Ground track

The orbit data is extracted from the following two-line orbital elements,

1 28646U 05016A   18316.23226190 0.00000000  00000-0  00000-0 0    05
2 28646  57.0040  11.9931 0005000 121.6474 238.3526 14.51903082    00
Epoch (UTC): 12 November 2018 05:34:27
Eccentricity: 0.0005000
inclination: 57.0040°
perigee height: 716 km
apogee height: 723 km
right ascension of ascending node: 11.9931°
argument of perigee: 121.6474°
revolutions per day: 14.51903082
mean anomaly at epoch: 238.3526°
orbit number at epoch: 0

The dashed part of the orbit path shows where the satellite is in the earth's shadow,  

DLR